sat.trackr.live / text

‹ back to catalog

ONEWEB-0344

NORAD 49210 · 2021-083AA

PAYLOAD ACTIVE UNKNOWN

§ Identity

Operator
Country
UK
Launch date
2021-09-14
Launch site
TYMSC
Launch vehicle
Mass (kg)
RCS (m²)

Purposes: comms

External: N2YO · Heavens-Above · Gunter

§ Orbital elements

Epoch: 2026-09-20T00:53:28.375008Z

Period
109.63 min
Inclination
87.8912°
Eccentricity
0.0001629
Mean motion
13.13468567 rev/d
Perigee alt
1,208.5 km
Apogee alt
1,211.0 km
Semi-major
7,587.9 km
B*
3.4854e-4
RAAN
301.3638°
Arg perigee
105.6176°
Mean anomaly
254.5133°
Rev number
24,334

§ Raw data

ONEWEB-03441 49210U 21083AA  26263.03713397  .00000140  00000+0  34854-3 0  99932 49210  87.8912 301.3638 0001629 105.6176 254.5133 13.13468567243344

JSON: /api/v1/satellites/49210 · /tle

For live sub-satellite position, see the globe view (requires WebGL).

§ Visibility from observer

Set your observer location to see the next 7 days of passes ≥ 10°. The values pass through the URL so the page stays shareable.

No JS? Fill the form by hand. The geolocation button needs JavaScript.